TimeAST,TemperatureF,Dew PointF,Humidity,Sea Level PressureIn,VisibilityMPH,Wind Direction,Wind SpeedMPH,Gust SpeedMPH,PrecipitationIn,Events,Conditions,WindDirDegrees,DateUTC
12:00 AM,80.6,73.4,79,29.92,6.2,Variable,3.5,-,N/A,,Partly Cloudy,0,2012-11-23 04:00:00
1:00 AM,80.6,73.4,79,29.89,6.2,SE,4.6,-,N/A,,Partly Cloudy,140,2012-11-23 05:00:00
2:00 AM,81,72,68,29.90,31,SSE,6.9,,,,Scattered Clouds,160,2012-11-23 06:00:00
2:00 AM,80.6,71.6,74,29.89,6.2,SSE,6.9,-,N/A,,Partly Cloudy,160,2012-11-23 06:00:00
3:00 AM,80.6,73.4,79,29.86,6.2,Variable,2.3,-,N/A,,Scattered Clouds,0,2012-11-23 07:00:00
4:00 AM,80.6,71.6,74,29.89,6.2,Variable,1.2,-,N/A,,Partly Cloudy,0,2012-11-23 08:00:00
5:00 AM,81,72,68,29.89,31,,2.3,,,,Scattered Clouds,,2012-11-23 09:00:00
5:00 AM,80.6,71.6,74,29.89,6.2,Variable,2.3,-,N/A,,Partly Cloudy,0,2012-11-23 09:00:00
6:00 AM,80.6,71.6,74,29.89,6.2,Variable,2.3,-,N/A,,Partly Cloudy,0,2012-11-23 10:00:00
7:00 AM,80.6,71.6,74,29.92,6.2,Variable,1.2,-,N/A,,Partly Cloudy,0,2012-11-23 11:00:00
8:00 AM,82,73,67,29.95,47,,2.3,,,,Scattered Clouds,,2012-11-23 12:00:00
8:00 AM,82.4,73.4,74,29.95,6.2,Variable,1.2,-,N/A,,Partly Cloudy,0,2012-11-23 12:00:00
9:00 AM,84.2,73.4,70,29.95,6.2,Variable,2.3,-,N/A,,Partly Cloudy,0,2012-11-23 13:00:00
10:00 AM,84.2,73.4,70,29.95,6.2,Variable,2.3,-,N/A,,Partly Cloudy,0,2012-11-23 14:00:00
11:00 AM,,73,,29.96,47,,3.5,,,,Scattered Clouds,,2012-11-23 15:00:00
11:00 AM,86.0,73.4,66,29.95,6.2,Variable,3.5,-,N/A,,Partly Cloudy,0,2012-11-23 15:00:00
12:00 PM,86.0,73.4,66,29.92,6.2,Variable,3.5,-,N/A,,Partly Cloudy,0,2012-11-23 16:00:00
1:00 PM,86.0,75.2,70,29.89,6.2,Variable,3.5,-,N/A,,Partly Cloudy,0,2012-11-23 17:00:00
2:00 PM,86,75,62,29.88,44,,3.5,,,,Scattered Clouds,,2012-11-23 18:00:00
2:00 PM,86.0,75.2,70,29.86,6.2,Variable,3.5,-,N/A,,Partly Cloudy,0,2012-11-23 18:00:00
3:00 PM,86.0,75.2,70,29.86,6.2,SW,4.6,-,N/A,,Partly Cloudy,220,2012-11-23 19:00:00
4:00 PM,86.0,75.2,70,29.86,6.2,SW,4.6,-,N/A,,Partly Cloudy,230,2012-11-23 20:00:00
5:00 PM,84,74,66,29.88,44,WSW,4.6,,,,Scattered Clouds,240,2012-11-23 21:00:00
5:00 PM,84.2,75.2,74,29.86,6.2,WSW,4.6,-,N/A,,Partly Cloudy,240,2012-11-23 21:00:00
6:00 PM,82.4,73.4,74,29.89,6.2,SW,4.6,-,N/A,,Scattered Clouds,230,2012-11-23 22:00:00
7:00 PM,82.4,73.4,74,29.89,6.2,SW,5.8,-,N/A,,Partly Cloudy,230,2012-11-23 23:00:00
8:00 PM,,,,,40,SW,4.6,,,,,230,2012-11-24 00:00:00
8:00 PM,82.4,73.4,74,29.92,6.2,SW,4.6,-,N/A,,Partly Cloudy,230,2012-11-24 00:00:00
9:00 PM,82.4,75.2,79,29.92,6.2,WSW,4.6,-,N/A,,Scattered Clouds,250,2012-11-24 01:00:00
10:00 PM,82.4,75.2,79,29.95,6.2,WSW,4.6,-,N/A,,Scattered Clouds,250,2012-11-24 02:00:00
11:00 PM,82,75,73,29.94,34,West,3.5,,,,Partly Cloudy,270,2012-11-24 03:00:00
11:00 PM,82.4,75.2,79,29.92,6.2,Variable,3.5,-,N/A,,Scattered Clouds,0,2012-11-24 03:00:00